Location: Cormont
(50.5693°N, 1.7416°E)
Time: 06:52:05
(UTC+00:00)

Ariane Rocket - Pass Details

Date: 21 October 2019
Orbit: 760 x 770 km, 98.8° (Epoch: 16 November)

Event Time Altitude Azimuth Distance (km) Brightness Sun altitude
Rises 17:37:14 0° 130° (SE) 3,235 5.8 -8.2°
Reaches altitude 10° 17:39:46 10° 119° (ESE) 2,313 5.0 -8.6°
Maximum altitude 17:44:06 29° 61° (ENE) 1,395 3.9 -9.3°
Drops below altitude 10° 17:48:27 10° 3° (N) 2,327 5.4 -10.0°
Sets 17:51:01 0° 352° (N) 3,257 6.3 -10.4°
